Livingston, MT

1:48 AM MDT on April 25, 2017 (GMT -0600)
Mission

Weather History for KLVM - January, 2014

Change the Weather History Date:

Tuesday, January 28, 2014

  Actual Average Record
Temperature  
Mean Temperature 23 °F 27 °F  
Max Temperature 39 °F 37 °F 56 °F (1988)
Min Temperature 7 °F 18 °F -26 °F (1951)
Degree Days  
Heating Degree Days 42 38  
Month to date heating degree days 869 1068  
Since 1 July heating degree days 3824 4233  
Cooling Degree Days 0 0  
Month to date cooling degree days 0  
Year to date cooling degree days 0  
Moisture  
Dew Point -1 °F    
Average Humidity 43    
Maximum Humidity 73    
Minimum Humidity 13    
Precipitation  
Precipitation 0.00 in 0.01 in 0.10 in (1950)
Month to date precipitation 0.19 0.44  
Year to date precipitation 0.19 0.44  
Sea Level Pressure  
Sea Level Pressure 30.20 in    
Wind  
Wind Speed 26 mph (WSW)    
Max Wind Speed 52 mph    
Max Gust Speed 65 mph    
Visibility 10 miles    
Events      
T = Trace of Precipitation, MM = Missing Value Source: NWS Daily Summary

Daily Weather History Graph

Daily Weather History Graph

Search for Another Location

Airport or City:

Trip Planner

Search our weather history database for the weather conditions in past years. The results will help you decide how hot, cold, wet, or windy it might be!

Date:

Astronomy

Jan. 28, 2014 Rise Set
Actual Time 7:47 AM MST 5:22 PM MST
Civil Twilight 7:15 AM MST 5:54 PM MST
Nautical Twilight 6:39 AM MST 6:30 PM MST
Astronomical Twilight 6:04 AM MST 7:05 PM MST
Moon 5:34 AM MST (1/28) 3:14 PM MST (1/28)
Length of Visible Light 10h 38m
Length of Day
9h 34m
Waning Crescent, 7% of the Moon is Illuminated
Jan 28
Waning Crescent
Jan 30
New
Feb 6
First Quarter
Feb 14
Full
Feb 22
Last Quarter

Hourly Weather History & Observations

Time (MST) Temp. Windchill Dew Point Humidity Pressure Visibility Wind Dir Wind Speed Gust Speed Precip Events Conditions
12:53 AM 10.0 °F -5.2 °F 1.0 °F 67% 30.43 in 10.0 mi NNW 12.7 mph - N/A   Clear
1:53 AM 10.0 °F -7.1 °F 1.0 °F 67% 30.43 in 10.0 mi NW 16.1 mph - N/A   Clear
2:53 AM 9.0 °F -8.5 °F -0.0 °F 67% 30.42 in 10.0 mi NW 16.1 mph - N/A   Clear
3:53 AM 10.9 °F -4.7 °F -0.9 °F 59% 30.38 in 10.0 mi WNW 13.8 mph 24.2 mph N/A   Clear
4:16 AM 19.0 °F 2.7 °F -2.0 °F 40% 30.17 in 10.0 mi West 20.7 mph 32.2 mph N/A   Clear
4:44 AM 9.0 °F -9.0 °F -2.0 °F 61% 30.16 in 10.0 mi NW 17.3 mph - N/A   Clear
4:53 AM 8.1 °F -11.7 °F -2.0 °F 64% 30.38 in 10.0 mi NW 20.7 mph - N/A   Clear
5:23 AM 19.0 °F 3.2 °F -2.0 °F 40% 30.15 in 10.0 mi West 19.6 mph 28.8 mph N/A   Clear
5:53 AM 19.0 °F 2.7 °F -2.9 °F 38% 30.33 in 10.0 mi West 20.7 mph 28.8 mph N/A   Clear
6:53 AM 9.0 °F -10.5 °F -2.9 °F 59% 30.38 in 10.0 mi NNW 20.7 mph 31.1 mph N/A   Mostly Cloudy
7:53 AM 18.0 °F 0.6 °F -4.0 °F 38% 30.34 in 10.0 mi West 23.0 mph 29.9 mph N/A   Overcast
8:53 AM 19.9 °F 1.3 °F -7.1 °F 30% 30.31 in 10.0 mi WSW 29.9 mph 38.0 mph N/A   Scattered Clouds
9:53 AM 23.0 °F 6.9 °F -8.0 °F 25% 30.31 in 10.0 mi WSW 24.2 mph 28.8 mph N/A   Clear
10:53 AM 30.9 °F 17.2 °F -9.0 °F 18% 30.26 in 10.0 mi SW 25.3 mph 33.4 mph N/A   Clear
11:53 AM 35.1 °F 23.0 °F -9.9 °F 14% 30.22 in 10.0 mi WSW 24.2 mph 32.2 mph N/A   Clear
12:53 PM 37.9 °F 25.9 °F -9.0 °F 13% 30.16 in 10.0 mi WSW 28.8 mph 36.8 mph N/A   Clear
1:53 PM 39.0 °F 27.2 °F -6.0 °F 15% 30.14 in 10.0 mi WSW 29.9 mph 34.5 mph N/A   Clear
2:53 PM 39.0 °F 27.8 °F -4.0 °F 16% 30.12 in 10.0 mi WSW 26.5 mph 34.5 mph N/A   Clear
3:53 PM 37.0 °F 25.4 °F -2.0 °F 19% 30.10 in 10.0 mi WSW 25.3 mph 32.2 mph N/A   Clear
4:53 PM 35.1 °F 21.8 °F -0.9 °F 22% 30.11 in 10.0 mi SW 29.9 mph 36.8 mph N/A   Clear
5:53 PM 36.0 °F 22.4 °F -2.0 °F 20% 30.06 in 10.0 mi SW 33.4 mph 43.7 mph N/A   Clear
6:53 PM 35.1 °F 22.5 °F -0.9 °F 22% 30.09 in 10.0 mi WSW 26.5 mph 38.0 mph N/A   Clear
7:53 PM 36.0 °F 22.2 °F -0.9 °F 21% 30.04 in 10.0 mi SW 34.5 mph 43.7 mph N/A   Mostly Cloudy
8:53 PM 36.0 °F 22.0 °F 1.0 °F 23% 30.05 in 10.0 mi SW 35.7 mph 47.2 mph N/A   Mostly Cloudy
9:53 PM 36.0 °F 22.0 °F 10.9 °F 36% 30.03 in 10.0 mi SW 35.7 mph 42.6 mph N/A   Mostly Cloudy
10:53 PM 33.1 °F 17.3 °F 14.0 °F 46% 30.00 in 10.0 mi SW 40.3 mph 58.7 mph N/A   Mostly Cloudy
11:53 PM 33.1 °F 18.2 °F 12.0 °F 42% 29.95 in 10.0 mi SSW 34.5 mph 55.2 mph N/A   Clear